Weather History for Sanford, FL

Change the Weather History Date:

Tuesday, October 9, 2012

  Actual Average Record
Temperature  
Mean Temperature 78 °F -  
Max Temperature 84 °F 85 °F 92 °F (1962)
Min Temperature 71 °F 65 °F 53 °F (2000)
Cooling Degree Days 12    
Growing Degree Days 28 (Base 50)    
Moisture  
Dew Point 70 °F    
Average Humidity 79    
Maximum Humidity 94    
Minimum Humidity 63    
Precipitation  
Precipitation 0.00 in - - ()
Sea Level Pressure  
Sea Level Pressure 30.03 in    
Wind  
Wind Speed 6 mph (North)    
Max Wind Speed 13 mph    
Max Gust Speed -    
Visibility 10 miles    
Events      
Averages and records for this station are not official NWS values.
T = Trace of Precipitation, MM = Missing Value Source: NWS Daily Summary

Daily Weather History Graph

Daily Weather History Graph

Search for Another Location

Airport:

Trip Planner

Search our weather history database for the weather conditions in past years. The results will help you decide how hot, cold, wet, or windy it might be!

Date:

Astronomy

Oct. 09, 2012 Rise Set
Actual Time 7:22 AM EDT 7:01 PM EDT
Civil Twilight 6:58 AM EDT 7:24 PM EDT
Nautical Twilight 6:31 AM EDT 7:52 PM EDT
Astronomical Twilight 6:04 AM EDT 8:19 PM EDT
Moon 1:25 AM EDT (10/9) 3:02 PM EDT (10/9)
Length of Visible Light 12h 25m
Length of Day
11h 38m
Last Quarter, 37% of the Moon is Illuminated
Oct 9
Last Quarter
Oct 15
New
Oct 21
First Quarter
Oct 29
Full
Nov 6
Last Quarter

Hourly Weather History & Observations

Time (EDT) Temp. Heat Index Dew Point Humidity Pressure Visibility Wind Dir Wind Speed Gust Speed Precip Events Conditions
12:53 AM 75.0 °F - 72.0 °F 90% 30.01 in 10.0 mi Calm Calm - N/A   Clear
1:53 AM 73.9 °F - 71.1 °F 91% 30.00 in 10.0 mi WNW 3.5 mph - N/A   Clear
2:08 AM 73.4 °F - 71.6 °F 94% 30.00 in 10.0 mi Calm Calm - N/A   Partly Cloudy
2:53 AM 73.0 °F - 71.1 °F 93% 29.99 in 10.0 mi Calm Calm - N/A   Clear
4:53 AM 72.0 °F - 70.0 °F 93% 29.98 in 10.0 mi Calm Calm - N/A   Partly Cloudy
5:50 AM 73.4 °F - 71.6 °F 94% 30.00 in 10.0 mi NNW 6.9 mph - N/A   Mostly Cloudy
5:53 AM 73.0 °F - 71.1 °F 93% 30.00 in 10.0 mi North 6.9 mph - N/A   Mostly Cloudy
6:27 AM 73.4 °F - 71.6 °F 94% 30.00 in 10.0 mi NNW 6.9 mph - N/A   Overcast
6:53 AM 73.0 °F - 71.1 °F 93% 30.01 in 8.0 mi North 8.1 mph - N/A   Overcast
7:53 AM 73.9 °F - 71.1 °F 91% 30.02 in 10.0 mi North 8.1 mph - N/A   Overcast
8:18 AM 75.2 °F - 71.6 °F 89% 30.02 in 10.0 mi North 8.1 mph - N/A   Scattered Clouds
8:53 AM 75.9 °F - 72.0 °F 87% 30.03 in 10.0 mi North 6.9 mph - N/A   Scattered Clouds
9:53 AM 78.1 °F - 72.0 °F 81% 30.04 in 10.0 mi North 6.9 mph - N/A   Mostly Cloudy
10:53 AM 79.0 °F - 71.1 °F 77% 30.06 in 10.0 mi North 10.4 mph - N/A   Mostly Cloudy
11:39 AM 80.6 °F 84.6 °F 71.6 °F 74% 30.05 in 10.0 mi NNW 9.2 mph - N/A   Scattered Clouds
11:53 AM 81.0 °F 85.2 °F 72.0 °F 74% 30.05 in 10.0 mi NNW 8.1 mph - N/A   Scattered Clouds
12:53 PM 84.0 °F 89.6 °F 72.0 °F 67% 30.04 in 10.0 mi North 9.2 mph - N/A   Mostly Cloudy
1:31 PM 82.4 °F 86.3 °F 69.8 °F 66% 30.04 in 10.0 mi NNE 11.5 mph - N/A   Overcast
1:44 PM 82.4 °F 86.3 °F 69.8 °F 66% 30.03 in 10.0 mi NE 10.4 mph - N/A   Mostly Cloudy
1:53 PM 82.9 °F 87.0 °F 70.0 °F 65% 30.03 in 10.0 mi NNE 11.5 mph - N/A   Mostly Cloudy
2:06 PM 82.4 °F 86.3 °F 69.8 °F 66% 30.03 in 10.0 mi North 11.5 mph - N/A   Mostly Cloudy
2:53 PM 82.0 °F 85.5 °F 69.1 °F 65% 30.01 in 10.0 mi NNE 9.2 mph - N/A   Mostly Cloudy
3:26 PM 82.4 °F 86.3 °F 69.8 °F 66% 30.01 in 10.0 mi NNE 12.7 mph - N/A   Mostly Cloudy
3:36 PM 82.4 °F 86.3 °F 69.8 °F 66% 30.01 in 10.0 mi NE 8.1 mph - N/A   Mostly Cloudy
3:53 PM 82.9 °F 86.5 °F 69.1 °F 63% 30.01 in 10.0 mi NE 9.2 mph - N/A   Scattered Clouds
4:53 PM 80.1 °F 82.9 °F 69.1 °F 69% 30.01 in 10.0 mi NNE 12.7 mph - N/A   Scattered Clouds
5:53 PM 78.1 °F - 68.0 °F 71% 30.02 in 10.0 mi NE 11.5 mph - N/A   Scattered Clouds
6:53 PM 75.9 °F - 66.9 °F 74% 30.03 in 10.0 mi NE 9.2 mph - N/A   Scattered Clouds
7:17 PM 75.2 °F - 68.0 °F 78% 30.04 in 10.0 mi NNE 6.9 mph - N/A   Mostly Cloudy
7:46 PM 73.4 °F - 66.2 °F 78% 30.04 in 10.0 mi NNE 8.1 mph - N/A   Partly Cloudy
7:53 PM 73.9 °F - 66.9 °F 79% 30.04 in 10.0 mi NE 6.9 mph - N/A   Scattered Clouds
8:53 PM 73.0 °F - 66.9 °F 81% 30.05 in 10.0 mi NNE 4.6 mph - N/A   Clear
9:53 PM 72.0 °F - 66.9 °F 84% 30.07 in 10.0 mi NNE 3.5 mph - N/A   Clear
10:53 PM 71.1 °F - 66.0 °F 84% 30.08 in 10.0 mi NNE 4.6 mph - N/A   Clear
11:53 PM 71.1 °F - 66.0 °F 84% 30.08 in 10.0 mi North 5.8 mph - N/A   Clear